[[{"header":{"parameterUnit":"m.s-1","parameterCategory":1,"la1":30.2991,"la2":30.254,"lo1":-89.0895,"lo2":-89.0444,"dy":0.0017,"dx":0.0017,"nx":28,"ny":28,"refTime":"2025-01-11T03:00:00:Z","depth":0,"parameterNumber":2,"parameterNumberName":"U-component_of_WINDS"},"data":[0,0,0,0,0,0,0,0,0,0,0,0,0,0,0,0,0,0,0,0,0,0,0,0,0,0,0,0,0,0,0,0,0,0,0,0,0,0,0,0,0,0,0,0,0,0,0,0,0,0,0,0,0,0,0,0,0,0,-7.1545,-7.1545,0,-7.1583,-7.1584,-7.1584,-7.1403,-7.1398,-7.1393,-7.1388,-7.1427,-7.1433,-7.1439,0,0,0,0,0,0,0,0,0,0,0,0,0,-7.1314,-7.1319,-7.1545,-7.1545,-7.1546,-7.1583,-7.1584,-7.1584,-7.1404,-7.1398,-7.1391,-7.1385,-7.1425,-7.1432,-7.144,0,0,0,0,0,0,0,0,0,0,0,0,0,-7.139,-7.1321,-7.1544,-7.146,-7.1453,-7.1583,-7.1584,-7.1584,-7.1406,-7.1398,-7.139,-7.1382,-7.1423,-7.1432,-7.144,-7.1653,0,0,-7.1468,-7.1472,0,0,0,0,0,0,0,0,-7.1386,-7.1399,-7.1472,-7.1466,-7.1458,-7.148,-7.1517,-7.1608,-7.1408,-7.1424,-7.1388,-7.1379,-7.1451,-7.1457,-7.1482,-7.1655,-7.1657,-7.1469,-7.1474,-7.1478,-7.148,0,0,0,0,0,0,0,-7.1381,-7.1396,-7.156,-7.1473,-7.1465,-7.142,-7.1422,-7.1533,-7.1481,-7.1422,-7.1409,-7.1416,-7.1446,-7.1474,-7.1482,-7.1657,-7.1468,-7.1476,-7.1482,-7.1485,-7.2006,-7.2014,0,0,0,0,0,0,-7.1387,-7.1393,-7.1558,-7.1561,-7.1402,-7.1431,-7.1433,-7.1481,-7.1479,-7.1472,-7.1422,-7.1407,-7.1462,-7.1471,-7.1482,-7.1729,-7.1478,-7.1486,-7.1491,-7.1997,-7.2007,-7.2017,0,0,0,0,0,0,-7.1383,-7.1403,-7.1557,-7.1473,-7.1489,-7.1443,-7.1499,-7.1486,-7.1513,-7.148,-7.147,-7.146,-7.1457,-7.147,-7.1612,-7.1728,-7.149,-7.1498,-7.1987,-7.2,-7.2012,-7.2226,0,0,0,0,0,0,-7.1377,-7.1403,-7.1483,-7.1477,-7.1495,-7.1686,-7.1506,-7.1493,-7.153,-7.151,-7.1513,-7.1506,-7.1451,-7.1599,-7.1621,-7.1736,-7.1505,-7.1976,-7.1993,-7.2008,-7.2208,-7.2244,-7.2275,0,0,0,0,0,-7.1369,-7.1542,-7.1488,-7.1509,-7.1594,-7.1693,-7.1704,-7.1638,-7.154,-7.162,-7.1598,-7.1506,-7.1713,-7.1616,-7.1638,-7.1758,-7.1969,-7.1988,-7.2007,-7.2193,-7.2237,-7.2274,0,0,0,0,0,0,-7.1563,-7.154,-7.1479,-7.1656,-7.1678,-7.1663,-7.1761,-7.1687,-7.1737,-7.1717,-7.1633,-7.1635,-7.1791,-7.1789,-7.1681,-7.1963,-7.1824,-7.1848,-7.1958,-7.1999,-7.2032,-7.2028,-7.1513,0,0,0,0,0,-7.1627,-7.171,-7.1684,-7.1842,-7.1857,-7.1808,-7.1849,-7.1796,-7.1816,-7.1824,-7.1813,-7.1836,-7.1905,-7.1953,-7.2015,-7.2209,-7.2205,-7.2302,-7.2336,-7.2363,-7.2384,-7.2484,-7.2526,-7.2079,-7.2079,-7.2079,0,0,-7.1758,-7.1755,-7.1813,-7.1881,-7.1892,-7.1979,-7.1817,-7.1916,-7.1979,-7.1839,-7.1971,-7.1965,-7.1985,-7.2153,-7.2226,-7.2155,-7.2508,-7.2388,-7.241,-7.2415,-7.2508,-7.255,-7.2588,-7.2092,-7.209,-7.2088,0,0,-7.204,-7.2049,-7.2179,-7.2194,-7.2213,-7.218,-7.2212,-7.2209,-7.2199,-7.2331,-7.2227,-7.2302,-7.2425,-7.2442,-7.2467,-7.276,-7.2675,-7.2783,-7.2956,-7.3055,-7.309,-7.312,-7.3221,-7.3259,-7.2805,-7.2805,-7.2805,0,-7.2201,-7.2327,-7.2256,-7.2362,-7.2395,-7.2273,-7.2405,-7.2423,-7.2462,-7.2487,-7.2408,-7.2559,-7.2564,-7.2733,-7.2805,-7.283,-7.2863,-7.2779,-7.3091,-7.3121,-7.3148,-7.3243,-7.3282,-7.2818,-7.2816,-7.2815,-7.2814,0,-7.2522,-7.2612,-7.2716,-7.2756,-7.2801,-7.292,-7.2866,-7.292,-7.2865,-7.2841,-7.2976,-7.2979,-7.3038,-7.3076,-7.3023,-7.3238,-7.3193,-7.3105,-7.2962,-7.3205,-7.3292,-7.3329,-7.2836,-7.2831,-7.2827,-7.2824,0,0,-7.2924,-7.2925,-7.2964,-7.298,-7.2993,-7.3061,-7.3175,-7.3234,-7.3281,-7.3313,-7.3404,-7.3512,-7.343,-7.3459,-7.3407,-7.3495,-7.3722,-7.3394,-7.3393,-7.3452,-7.3956,-7.402,-7.4064,-7.3669,-7.3676,-7.3681,-7.3953,0,-7.3198,-7.339,-7.333,-7.3524,-7.3605,-7.3493,-7.3591,-7.361,-7.3591,-7.3657,-7.3636,-7.3712,-7.36,-7.3616,-7.3698,-7.3677,-7.3822,-7.3658,-7.3751,-7.3755,-7.3745,-7.411,-7.4178,-7.4435,-7.3988,-7.3994,-7.3998,0,-7.3542,-7.3587,-7.379,-7.3789,-7.382,-7.391,-7.3959,-7.4024,-7.4044,-7.4024,-7.4058,-7.3988,-7.4099,-7.3961,-7.4111,-7.4,-7.4036,-7.4032,-7.4041,-7.4043,-7.3888,-7.4119,-7.4515,-7.4553,-7.4052,-7.4048,-7.4044,0,-7.381,-7.3922,-7.4057,-7.4075,-7.4079,-7.4144,-7.4148,-7.416,-7.4199,-7.4243,-7.4267,-7.4325,-7.4355,-7.44,-7.4348,-7.4252,-7.4506,-7.4363,-7.449,-7.4491,-7.4544,-7.454,-7.4948,-7.4575,-7.4575,-7.4574,-7.4573,0,-7.4119,-7.4246,-7.4177,-7.426,-7.4399,-7.433,-7.447,-7.4462,-7.4474,-7.4552,-7.4461,-7.4536,-7.4465,-7.4534,-7.4495,-7.4624,-7.464,-7.4625,-7.4612,-7.4631,-7.4632,-7.4649,-7.4628,-7.4584,-7.4582,-7.458,-7.4578,0,-7.4439,-7.4399,-7.4537,-7.453,-7.4532,-7.4634,-7.4627,-7.4703,-7.4679,-7.478,-7.48,-7.4761,-7.4838,-7.4792,-7.4871,-7.4845,-7.5012,-7.4977,-7.5005,-7.4994,-7.5121,-7.5109,-7.555,-7.5603,-7.5201,-7.5205,-7.5209,0,-7.4636,-7.4731,-7.4735,-7.4781,-7.4792,-7.4868,-7.4907,-7.4845,-7.489,-7.492,-7.4992,-7.5062,-7.5113,-7.5242,-7.522,-7.528,-7.5243,-7.5394,-7.5251,-7.5267,-7.5241,-7.5234,-7.5242,-7.5421,-7.5426,-7.543,-7.5433,0,-7.499,-7.4966,-7.5026,-7.5081,-7.5131,-7.5171,-7.5203,-7.5247,-7.5184,-7.524,-7.5317,-7.5358,-7.5439,-7.5508,-7.5559,-7.5563,-7.5488,-7.5479,-7.5511,-7.5528,-7.5539,-7.5531,-7.5078,-7.5468,-7.5464,-7.5462,-7.546,-7.5459,-7.5251,-7.533,-7.5345,-7.5416,-7.5434,-7.5467,-7.5537,-7.5522,-7.5586,-7.5646,-7.5606,-7.5698,-7.5715,-7.5776,-7.579,-7.586,-7.5799,-7.5846,-7.5857,-7.5869,-7.5884,-7.5532,-7.587,-7.5869,-7.5868,-7.5867,-7.5867,0,-7.5596,-7.5601,-7.5667,-7.5715,-7.5771,-7.5698,-7.573,-7.5782,-7.5863,-7.5886,-7.5939,-7.6029,-7.6096,-7.6082,-7.6142,-7.6201,-7.6168,-7.6219,-7.6211,-7.6213,-7.5937,-7.5902,-7.6245,-7.6245,-7.6245,-7.6245,-7.6244,-7.6244,-7.5782,-7.591,-7.5888,-7.6025,-7.6028,-7.6117,-7.6142,-7.6171,-7.6189,-7.6293,-7.6348,-7.6339,-7.6347,-7.6408,-7.6466,-7.646,-7.6485,-7.6548,-7.6529,-7.6271,-7.6233,-7.6197,-7.6163,-7.6555,-7.6555,-7.6798,-7.68,-7.6802]},{"header":{"parameterUnit":"m.s-1","parameterCategory":1,"la1":30.2991,"la2":30.254,"lo1":-89.0895,"lo2":-89.0444,"dy":0.0017,"dx":0.0017,"nx":28,"ny":28,"refTime":"2025-01-11T03:00:00:Z","depth":0,"parameterNumber":3,"parameterNumberName":"V-component_of_WINDS"},"data":[0,0,0,0,0,0,0,0,0,0,0,0,0,0,0,0,0,0,0,0,0,0,0,0,0,0,0,0,0,0,0,0,0,0,0,0,0,0,0,0,0,0,0,0,0,0,0,0,0,0,0,0,0,0,0,0,0,0,-0.2681,-0.2679,0,-0.2546,-0.2545,-0.2543,-0.2502,-0.2502,-0.2503,-0.2504,-0.2362,-0.2358,-0.2353,0,0,0,0,0,0,0,0,0,0,0,0,0,-0.2897,-0.2894,-0.2681,-0.2679,-0.2678,-0.2546,-0.2544,-0.2543,-0.2502,-0.2502,-0.2503,-0.2504,-0.2363,-0.2358,-0.2353,0,0,0,0,0,0,0,0,0,0,0,0,0,-0.2787,-0.2892,-0.2681,-0.2641,-0.2637,-0.2547,-0.2544,-0.2542,-0.2501,-0.2502,-0.2504,-0.2504,-0.2365,-0.2359,-0.2352,-0.2291,0,0,-0.2332,-0.2329,0,0,0,0,0,0,0,0,-0.2793,-0.2779,-0.2649,-0.2644,-0.2638,-0.2542,-0.2569,-0.2458,-0.2501,-0.2553,-0.2504,-0.2505,-0.2421,-0.241,-0.2382,-0.2284,-0.2278,-0.2331,-0.2327,-0.2325,-0.2323,0,0,0,0,0,0,0,-0.2801,-0.2785,-0.2627,-0.2647,-0.2641,-0.2628,-0.2614,-0.2547,-0.2482,-0.2548,-0.2545,-0.253,-0.2418,-0.2388,-0.2378,-0.2276,-0.2332,-0.2326,-0.2322,-0.2319,-0.2118,-0.2116,0,0,0,0,0,0,-0.2816,-0.2791,-0.2632,-0.2623,-0.272,-0.2624,-0.2607,-0.2572,-0.2483,-0.2471,-0.2529,-0.2528,-0.2399,-0.2386,-0.2373,-0.2293,-0.2325,-0.2318,-0.2315,-0.2119,-0.2117,-0.2116,0,0,0,0,0,0,-0.2821,-0.2802,-0.2637,-0.2706,-0.2684,-0.2619,-0.2579,-0.2569,-0.2539,-0.2469,-0.2456,-0.2511,-0.2399,-0.2382,-0.2311,-0.2288,-0.2315,-0.2309,-0.2121,-0.2119,-0.2117,-0.2134,0,0,0,0,0,0,-0.2827,-0.2804,-0.2782,-0.2706,-0.2681,-0.2579,-0.2578,-0.2565,-0.2528,-0.2526,-0.2449,-0.2437,-0.2399,-0.2321,-0.2305,-0.2279,-0.2304,-0.2122,-0.212,-0.2117,-0.2136,-0.2133,-0.2131,0,0,0,0,0,-0.2835,-0.2792,-0.2781,-0.2762,-0.2652,-0.2578,-0.2563,-0.2522,-0.2527,-0.2502,-0.2456,-0.2439,-0.2293,-0.2314,-0.2295,-0.2267,-0.2124,-0.212,-0.2117,-0.2137,-0.2134,-0.2131,0,0,0,0,0,0,-0.2866,-0.2782,-0.2768,-0.27,-0.2647,-0.2571,-0.254,-0.2521,-0.2464,-0.2464,-0.2414,-0.2397,-0.2328,-0.2291,-0.2316,-0.2202,-0.2208,-0.2201,-0.2229,-0.2225,-0.2223,-0.2233,-0.2299,0,0,0,0,0,-0.2865,-0.2814,-0.2742,-0.2689,-0.2663,-0.2606,-0.2572,-0.2545,-0.2487,-0.2464,-0.2413,-0.2356,-0.2297,-0.2259,-0.2201,-0.213,-0.2111,-0.2101,-0.2099,-0.2098,-0.2092,-0.2048,-0.2042,-0.2106,-0.2106,-0.2106,0,0,-0.2863,-0.281,-0.2781,-0.2694,-0.2649,-0.2595,-0.2587,-0.2531,-0.2489,-0.2455,-0.2384,-0.2345,-0.2278,-0.2205,-0.2171,-0.2172,-0.207,-0.2094,-0.2093,-0.2088,-0.2044,-0.2038,-0.2033,-0.2104,-0.2104,-0.2104,0,0,-0.2829,-0.2786,-0.2735,-0.269,-0.2623,-0.2585,-0.2573,-0.2499,-0.2472,-0.24,-0.2372,-0.2321,-0.2222,-0.2174,-0.2137,-0.2083,-0.2064,-0.2066,-0.2053,-0.2011,-0.2006,-0.2001,-0.1979,-0.1972,-0.206,-0.206,-0.206,0,-0.2834,-0.2753,-0.2711,-0.2655,-0.2616,-0.2583,-0.2529,-0.2488,-0.2405,-0.2377,-0.238,-0.2252,-0.2205,-0.212,-0.2106,-0.2078,-0.206,-0.2074,-0.2011,-0.2005,-0.2,-0.1979,-0.1971,-0.2061,-0.2061,-0.2061,-0.2061,0,-0.276,-0.2704,-0.2671,-0.2591,-0.2549,-0.2495,-0.2442,-0.2404,-0.238,-0.2341,-0.2266,-0.2208,-0.2137,-0.2115,-0.2091,-0.2025,-0.2027,-0.2021,-0.2026,-0.1995,-0.1974,-0.1966,-0.2061,-0.2061,-0.2061,-0.2061,0,0,-0.2743,-0.264,-0.2629,-0.2591,-0.2513,-0.2468,-0.2411,-0.2341,-0.2308,-0.2251,-0.22,-0.2115,-0.2108,-0.2066,-0.2036,-0.1999,-0.1956,-0.1997,-0.1994,-0.1989,-0.1876,-0.188,-0.1872,-0.1944,-0.1942,-0.1941,-0.1881,0,-0.2698,-0.2597,-0.2556,-0.2472,-0.2418,-0.2384,-0.2334,-0.228,-0.2241,-0.2188,-0.2145,-0.2085,-0.2082,-0.2055,-0.2018,-0.197,-0.1933,-0.1974,-0.1893,-0.1891,-0.1909,-0.1861,-0.1865,-0.1812,-0.1873,-0.1872,-0.1871,0,-0.2633,-0.2575,-0.2486,-0.2412,-0.2388,-0.2344,-0.2275,-0.2226,-0.2162,-0.2136,-0.2088,-0.206,-0.1996,-0.2005,-0.1915,-0.1944,-0.1908,-0.1879,-0.1876,-0.1866,-0.1878,-0.1846,-0.1794,-0.1785,-0.1857,-0.1859,-0.1859,0,-0.2626,-0.2526,-0.2459,-0.2428,-0.2341,-0.231,-0.2272,-0.221,-0.217,-0.2109,-0.2082,-0.2015,-0.1978,-0.1925,-0.1878,-0.189,-0.1791,-0.1798,-0.1765,-0.1766,-0.1745,-0.1746,-0.1684,-0.1726,-0.1726,-0.1726,-0.1726,0,-0.2579,-0.2525,-0.2455,-0.2413,-0.2351,-0.2304,-0.2243,-0.2202,-0.2146,-0.2094,-0.2062,-0.2013,-0.1955,-0.1899,-0.1862,-0.1791,-0.1775,-0.175,-0.174,-0.1752,-0.1755,-0.1726,-0.1728,-0.1724,-0.1724,-0.1725,-0.1725,0,-0.256,-0.2512,-0.2436,-0.2359,-0.2339,-0.2296,-0.2229,-0.2186,-0.2146,-0.208,-0.2062,-0.1998,-0.193,-0.1878,-0.179,-0.1764,-0.1688,-0.1679,-0.1709,-0.1704,-0.1674,-0.1676,-0.1589,-0.1574,-0.1629,-0.1628,-0.1628,0,-0.2533,-0.249,-0.2409,-0.2372,-0.2334,-0.2276,-0.2235,-0.2186,-0.2143,-0.2066,-0.2032,-0.1961,-0.1902,-0.1794,-0.1738,-0.1669,-0.1657,-0.1631,-0.1646,-0.1658,-0.1653,-0.1655,-0.1649,-0.1629,-0.1628,-0.1628,-0.1628,0,-0.2488,-0.2465,-0.2407,-0.234,-0.2292,-0.2237,-0.218,-0.2152,-0.2092,-0.2046,-0.1976,-0.193,-0.1839,-0.1768,-0.1693,-0.1652,-0.1628,-0.1623,-0.1612,-0.1622,-0.164,-0.1627,-0.1701,-0.1625,-0.1626,-0.1626,-0.1626,-0.1626,-0.2462,-0.2421,-0.2357,-0.2293,-0.2245,-0.2193,-0.2148,-0.2102,-0.2043,-0.1965,-0.194,-0.1867,-0.1801,-0.1698,-0.1655,-0.1596,-0.1595,-0.1579,-0.1575,-0.1571,-0.157,-0.1652,-0.1582,-0.1582,-0.1582,-0.1582,-0.1582,0,-0.2412,-0.2369,-0.2311,-0.2233,-0.2182,-0.2166,-0.2102,-0.206,-0.1996,-0.1937,-0.1879,-0.1797,-0.1728,-0.1666,-0.1593,-0.1557,-0.1544,-0.1539,-0.154,-0.153,-0.1576,-0.1592,-0.1551,-0.1551,-0.1551,-0.1551,-0.1551,-0.1551,-0.2381,-0.2311,-0.228,-0.2185,-0.2141,-0.207,-0.2034,-0.1985,-0.1937,-0.1847,-0.179,-0.175,-0.1689,-0.1611,-0.1546,-0.1529,-0.1502,-0.15,-0.148,-0.1524,-0.1528,-0.1531,-0.1546,-0.1495,-0.1495,-0.1439,-0.1438,-0.1438]}]]